Ubon Ratchathani, Thailand

2:52 PM +07 on July 25, 2017 (GMT +0700)
Ubon Ratchathani

Weather History for VTUU - February, 2013

Change the Weather History Date:

Sunday, February 24, 2013

  Actual Average Record
Temperature  
Mean Temperature 80 °F -  
Max Temperature 94 °F 95 °F - ()
Min Temperature 67 °F 71 °F - ()
Cooling Degree Days 16    
Growing Degree Days 30 (Base 50)    
Moisture  
Dew Point 64 °F    
Average Humidity 58    
Maximum Humidity 78    
Minimum Humidity 35    
Precipitation  
Precipitation 0.00 in 0.04 in - ()
Sea Level Pressure  
Sea Level Pressure 29.89 in    
Wind  
Wind Speed 4 mph ()    
Max Wind Speed 7 mph    
Max Gust Speed -    
Visibility 5.3 miles    
Events      
T = Trace of Precipitation, MM = Missing Value Source: Averaged Metar Reports

Daily Weather History Graph

Daily Weather History Graph

Search for Another Location

Airport or City:

Trip Planner

Search our weather history database for the weather conditions in past years. The results will help you decide how hot, cold, wet, or windy it might be!

Date:

Astronomy

Feb. 24, 2013 Rise Set
Actual Time 6:20 AM +07 6:06 PM +07
Civil Twilight 5:59 AM +07 6:28 PM +07
Nautical Twilight 5:33 AM +07 6:53 PM +07
Astronomical Twilight 5:08 AM +07 7:18 PM +07
Moon 4:49 PM +07 (2/24) 4:51 AM +07 (2/24)
Length of Visible Light 12h 29m
Length of Day
11h 46m
Waxing Gibbous, 97% of the Moon is Illuminated
Feb 24
Waxing Gibbous
Feb 26
Full
Mar 5
Last Quarter
Mar 12
New
Mar 20
First Quarter

Hourly Weather History & Observations

Time (+07) Temp. Heat Index Dew Point Humidity Pressure Visibility Wind Dir Wind Speed Gust Speed Precip Events Conditions
12:00 AM 71.6 °F - 62.6 °F 73% 29.98 in 5.0 mi NNE 2.3 mph - N/A   Mostly Cloudy
1:00 AM 70 °F - 61 °F 65% 29.96 in 5 mi North 5.8 mph - -   Mist
1:00 AM 69.8 °F - 60.8 °F 73% 29.95 in 5.0 mi North 5.8 mph - N/A   Mostly Cloudy
4:00 AM 69.8 °F - 60.8 °F 73% 29.92 in 5.0 mi NNE 2.3 mph - N/A   Mostly Cloudy
5:00 AM 68.0 °F - 60.8 °F 78% 29.89 in 5.0 mi North 5.8 mph - N/A   Mostly Cloudy
5:30 AM 69.8 °F - 60.8 °F 73% 29.92 in 5.0 mi NNE 2.3 mph - N/A   Mostly Cloudy
6:00 AM 68.0 °F - 60.8 °F 78% 29.92 in 5.0 mi North 4.6 mph - N/A   Mostly Cloudy
6:30 AM 68.0 °F - 60.8 °F 78% 29.92 in 5.0 mi North 5.8 mph - N/A   Mostly Cloudy
7:00 AM 68 °F - 61 °F 73% 29.94 in 5 mi North 4.6 mph - -   Mist
7:00 AM 68.0 °F - 60.8 °F 78% 29.95 in 5.0 mi North 4.6 mph - N/A   Mostly Cloudy
9:00 AM 73.4 °F - 62.6 °F 69% 29.95 in - NE 5.8 mph - N/A   Clear
10:00 AM 78.8 °F - 62.6 °F 57% 29.95 in - NE 6.9 mph - N/A   Clear
11:00 AM 80.6 °F 81.8 °F 62.6 °F 54% 29.95 in - North 6.9 mph - N/A   Clear
12:00 PM 86.0 °F 87.3 °F 64.4 °F 48% 29.92 in - NNE 5.8 mph - N/A   Clear
1:00 PM 88 °F - 64 °F 35% 29.90 in 6 mi NNE 3.5 mph - -   Mostly Cloudy
1:00 PM 87.8 °F 89.4 °F 64.4 °F 46% 29.89 in - NNE 4.6 mph - N/A   Clear
2:00 PM 89.6 °F 90.1 °F 62.6 °F 40% 29.83 in 6.2 mi NNE 5.8 mph - N/A   Mostly Cloudy
3:00 PM 91.4 °F 92.1 °F 62.6 °F 38% 29.80 in 6.2 mi NNE 4.6 mph - N/A   Mostly Cloudy
4:00 PM 93.2 °F 96.2 °F 66.2 °F 41% 29.77 in 6.2 mi NE 4.6 mph - N/A   Mostly Cloudy
5:00 PM 91.4 °F 94.0 °F 66.2 °F 43% 29.80 in 5.6 mi East 2.3 mph - N/A   Unknown
5:30 PM 89.6 °F 92.2 °F 66.2 °F 46% 29.80 in 5.6 mi North 3.5 mph - N/A   Unknown
6:00 PM 89.6 °F 92.2 °F 66.2 °F 46% 29.80 in 5.0 mi NNW 3.5 mph - N/A   Unknown
7:00 PM 88 °F - 67 °F 41% 29.83 in 5 mi North 2.3 mph - -   Haze
7:00 PM 87.8 °F 91.4 °F 68.0 °F 52% 29.83 in 5.0 mi North 3.5 mph - N/A   Unknown
8:00 PM 86.0 °F 89.4 °F 68.0 °F 55% 29.86 in 5.0 mi NNE 3.5 mph - N/A   Unknown
9:00 PM 84.2 °F 87.3 °F 68.0 °F 58% 29.89 in 5.0 mi NE 5.8 mph - N/A   Unknown
10:00 PM 80.6 °F 82.3 °F 64.4 °F 58% 29.89 in 5.6 mi North 6.9 mph - N/A   Unknown
11:00 PM 78.8 °F - 66.2 °F 65% 29.89 in - North 5.8 mph - N/A   Clear